GW5676 Weather Reports


time (UTC)temp
C
wind
direction
speed
KPH
gust
KPH
rain 1hr
cm
rain 24hr
cm
rain mn
cm
humidity
%
barometer
mb
20260507162751 13 52 8.0 14.5 0.00 0.08 0.05 70 1011.5
20260507162016 13 61 8.0 14.5 0.00 0.08 0.05 70 1011.4
20260507161502 13 41 9.7 16.1 0.00 0.08 0.05 71 1011.6
20260507161004 -17 34 16.1 16.1 0.00 0.08 0.05 1011.4
20260507160725 13 49 6.4 8.0 0.00 0.08 0.05 71 1011.4
20260507160002 13 49 6.4 17.7 0.00 0.08 0.05 71 1011.6
20260507155501 13 42 11.3 17.7 0.00 0.08 0.05 71 1011.5
20260507155002 13 103 8.0 19.3 0.00 0.08 0.05 71 1011.5
20260507154501 13 51 11.3 19.3 0.00 0.08 0.05 70 1011.7
20260507154002 13 42 9.7 22.5 0.00 0.08 0.05 69 1011.7
20260507153502 13 16 16.1 24.1 0.00 0.08 0.05 70 1011.6
20260507153233 13 39 12.9 24.1 0.00 0.08 0.05 70 1011.4
20260507152457 13 39 14.5 22.5 0.00 0.08 0.05 68 1011.5
20260507151958 13 0 8.0 29.0 0.00 0.08 0.05 68 1011.4
20260507151453 13 48 11.3 29.0 0.00 0.08 0.05 66 1011.5
20260507150953 13 56 14.5 20.9 0.00 0.08 0.05 67 1011.5
20260507150453 13 34 11.3 19.3 0.00 0.08 0.05 67 1011.8
20260507145952 13 25 11.3 19.3 0.00 0.08 0.05 67 1011.7
20260507145453 13 58 11.3 22.5 0.00 0.08 0.05 67 1011.4
20260507144952 13 30 9.7 22.5 0.00 0.10 0.05 68 1011.3
20260507144735 13 61 12.9 22.5 0.00 0.10 0.05 68 1011.0
20260507143931 13 41 14.5 22.5 0.00 0.15 0.05 68 1011.2
20260507143431 13 31 9.7 22.5 0.00 0.15 0.05 68 1011.4
20260507142931 13 48 11.3 22.5 0.00 0.15 0.05 69 1011.4
20260507142430 13 73 9.7 24.1 0.00 0.20 0.05 69 1011.3
20260507142202 -17 10 24.1 24.1 0.00 0.20 0.05 1011.5
20260507141432 14 49 9.7 8.0 0.00 0.20 0.05 70 1011.4
20260507140931 14 49 9.7 14.5 0.00 0.20 0.05 70 1011.6
20260507140431 14 61 9.7 19.3 0.00 0.20 0.05 70 1011.6
20260507135930 14 23 9.7 22.5 0.00 0.20 0.05 69 1011.7
20260507135431 14 68 12.9 22.5 0.00 0.23 0.05 69 1011.5
20260507135159 14 31 14.5 22.5 0.00 0.23 0.05 69 1011.6
20260507134430 14 32 14.5 22.5 0.00 0.23 0.05 69 1011.7
20260507133930 14 30 12.9 27.4 0.00 0.23 0.05 69 1011.6
20260507133430 14 58 14.5 27.4 0.00 0.23 0.05 69 1011.3
20260507132929 14 35 14.5 22.5 0.00 0.23 0.05 70 1011.3
20260507132429 14 13 12.9 22.5 0.00 0.23 0.05 73 1011.4
20260507131925 14 44 14.5 20.9 0.00 0.23 0.05 75 1011.0
20260507131423 14 1 9.7 24.1 0.00 0.23 0.05 77 1011.2
20260507130924 14 41 14.5 24.1 0.00 0.23 0.05 78 1011.5
20260507130423 14 28 9.7 22.5 0.00 0.23 0.05 78 1011.1
20260507125924 14 37 12.9 22.5 0.00 0.23 0.05 78 1011.0
20260507125423 14 30 9.7 17.7 0.00 0.23 0.05 78 1011.3
20260507125207 14 52 6.4 17.7 0.00 0.23 0.05 78 1011.3
20260507124423 14 35 8.0 17.7 0.00 0.23 0.05 78 1011.2
20260507123922 14 51 12.9 17.7 0.00 0.23 0.05 78 1011.3
20260507123656 14 27 11.3 17.7 0.00 0.23 0.05 78 1011.3
20260507122920 14 327 9.7 16.1 0.00 0.23 0.05 79 1011.2
20260507122421 14 24 9.7 16.1 0.00 0.23 0.05 78 1011.0
20260507121911 14 54 9.7 16.1 0.00 0.23 0.05 78 1010.9
20260507121409 14 61 8.0 17.7 0.00 0.23 0.05 78 1011.0
20260507121156 13 35 9.7 17.7 0.00 0.23 0.05 78 1010.9
20260507120635 13 58 9.7 17.7 0.00 0.23 0.05 77 1010.8
20260507115910 13 353 9.7 19.3 0.00 0.23 0.05 77 1011.2
20260507115641 13 27 9.7 19.3 0.00 0.23 0.05 77 1011.2
20260507114910 13 21 9.7 16.1 0.00 0.23 0.05 78 1011.2
20260507113902 13 17 9.7 16.1 0.00 0.23 0.05 78 1011.3
20260507113403 13 32 8.0 16.1 0.00 0.23 0.05 79 1010.9
20260507112903 13 21 6.4 14.5 0.00 0.23 0.05 80 1010.9
20260507112403 -17 4 9.7 9.7 0.00 0.23 0.05 1010.9
20260507111904 -17 0.0 0.0 0.00 0.23 0.05 1010.6
20260507111354 13 23 6.4 11.3 0.00 0.23 0.05 80 1010.5
20260507110832 13 23 6.4 11.3 0.00 0.23 0.05 80 1010.9
20260507110559 13 20 6.4 11.3 0.00 0.23 0.05 81 1010.9
20260507105830 13 23 9.7 9.7 0.00 0.23 0.05 81 1010.8
20260507105330 13 32 4.8 8.0 0.00 0.23 0.05 81 1010.6
20260507104830 -17 0.0 0.0 0.00 0.23 0.05 1010.5
20260507104325 13 10 8.0 14.5 0.00 0.23 0.05 81 1010.4
20260507103810 13 10 8.0 16.1 0.03 0.23 0.05 81 1010.4
20260507103302 13 16 8.0 16.1 0.03 0.23 0.05 82 1010.2
20260507102803 13 14 8.0 14.5 0.03 0.23 0.05 82 1010.0
20260507102301 13 13 6.4 11.3 0.03 0.23 0.05 82 1010.0
20260507101802 13 32 11.3 14.5 0.03 0.23 0.05 82 1010.1
20260507101303 13 32 11.3 14.5 0.03 0.23 0.05 82 1009.9
20260507100801 13 14 9.7 19.3 0.03 0.23 0.05 82 1010.1
20260507100301 13 20 9.7 22.5 0.05 0.23 0.05 82 1010.4
20260507095802 13 45 9.7 22.5 0.05 0.18 0.05 82 1010.4
20260507095305 13 18 12.9 24.1 0.05 0.18 0.05 82 1010.4
20260507094803 14 16 24.1 24.1 0.05 0.18 0.05 82 1010.2
20260507094524 14 4 6.4 9.7 0.05 0.18 0.03 82 1010.1
20260507094028 14 16 8.0 14.5 0.03 0.18 0.03 82 1010.6
20260507093304 14 16 8.0 14.5 0.03 0.18 0.03 82 1010.4
20260507092759 14 0 9.7 14.5 0.03 0.18 0.03 82 1010.2
20260507092301 14 0 9.7 19.3 0.03 0.18 0.03 82 1010.4
20260507091800 14 32 9.7 20.9 0.03 0.18 0.03 82 1010.4
20260507091300 14 3 12.9 22.5 0.03 0.18 0.03 82 1010.1
20260507091032 15 39 11.3 22.5 0.03 0.18 0.03 81 1010.0
20260507090312 15 27 11.3 20.9 0.00 0.18 0.00 81 1010.0
20260507085759 15 3 11.3 20.9 0.00 0.18 0.00 80 1010.2
20260507085300 15 25 9.7 25.7 0.00 0.18 0.00 80 1010.1
20260507084758 15 21 12.9 25.7 0.00 0.18 0.00 79 1010.1
20260507084300 15 353 8.0 20.9 0.00 0.18 0.00 79 1009.8
20260507084031 16 302 11.3 27.4 0.00 0.18 0.00 78 1009.7
20260507083300 16 355 8.0 27.4 0.00 0.18 0.00 78 1009.6
20260507082807 16 21 11.3 24.1 0.00 0.18 0.00 78 1009.4
20260507081759 18 23 16.1 25.7 0.00 0.18 0.00 77 1009.5
20260507081301 20 353 11.3 17.7 0.00 0.18 0.00 80 1009.5
20260507080758 20 307 4.8 14.5 0.00 0.18 0.00 80 1009.3
20260507080301 20 18 4.8 17.7 0.00 0.18 0.00 79 1009.0
20260507075758 20 316 9.7 17.7 0.00 0.18 0.00 79 1008.7
20260507075300 20 17 3.2 9.7 0.00 0.18 0.00 79 1008.5
20260507075034 20 334 4.8 8.0 0.00 0.18 0.00 78 1008.6
20260507074251 20 3 4.8 11.3 0.00 0.18 0.00 78 1008.7
20260507073746 20 313 6.4 11.3 0.00 0.18 0.00 78 1008.8
20260507073518 20 313 6.4 9.7 0.00 0.18 0.00 78 1008.8
20260507072736 20 257 1.6 8.0 0.00 0.18 0.00 78 1008.6
20260507072231 20 262 6.4 11.3 0.00 0.18 0.00 77 1008.6
20260507071731 20 227 6.4 17.7 0.00 0.18 0.00 77 1008.6
20260507071230 20 244 9.7 20.9 0.00 0.18 0.00 77 1008.8
20260507071008 20 269 9.7 20.9 0.00 0.18 0.00 77 1008.8
20260507070231 20 257 9.7 19.3 0.00 0.18 0.00 76 1008.7
20260507065731 20 216 8.0 19.3 0.00 0.18 0.00 76 1008.4
20260507065231 20 231 11.3 19.3 0.00 0.18 0.00 75 1008.4
20260507065003 21 240 9.7 19.3 0.00 0.18 0.00 75 1008.5
20260507064229 21 230 6.4 17.7 0.00 0.18 0.00 75 1008.5
20260507064005 21 234 11.3 16.1 0.00 0.18 0.00 75 1008.3
20260507063457 21 223 8.0 14.5 0.00 0.18 0.00 75 1008.2
20260507062707 21 193 6.4 14.5 0.00 0.18 0.00 75 1008.1
20260507062203 21 214 9.7 19.3 0.00 0.18 0.00 76 1008.0
20260507061702 21 214 9.7 19.3 0.00 0.18 0.00 76 1008.1
20260507061435 21 202 8.0 16.1 0.00 0.18 0.00 75 1008.0
20260507060703 21 202 8.0 16.1 0.00 0.18 0.00 75 1008.0
20260507060202 21 189 8.0 19.3 0.00 0.18 0.00 75 1008.0
20260507055701 21 179 6.4 19.3 0.00 0.18 0.00 75 1008.0
20260507055201 21 214 8.0 20.9 0.00 0.18 0.00 75 1008.2
20260507054702 21 213 14.5 20.9 0.00 0.18 0.00 75 1008.4
20260507054434 21 180 9.7 17.7 0.00 0.18 0.00 75 1008.3
20260507053702 21 221 11.3 20.9 0.00 0.18 0.00 75 1008.2
20260507053436 21 213 14.5 20.9 0.00 0.18 0.00 75 1008.2
20260507052701 21 214 9.7 19.3 0.00 0.18 0.00 75 1008.3
20260507052202 21 220 9.7 19.3 0.00 0.18 0.00 75 1008.5
20260507051702 21 206 11.3 20.9 0.00 0.18 0.00 75 1008.7
20260507051203 21 252 11.3 20.9 0.00 0.18 0.00 75 1008.7
20260507050922 21 228 12.9 20.9 0.00 0.18 0.00 75 1009.0
20260507050143 21 220 14.5 20.9 0.00 0.18 0.00 75 1009.2
20260507045645 21 227 9.7 19.3 0.00 0.18 0.00 75 1009.3
20260507045143 21 237 11.3 22.5 0.00 0.18 0.00 75 1009.3
20260507044645 21 224 9.7 22.5 0.00 0.18 0.00 75 1009.3
20260507044143 21 220 11.3 16.1 0.00 0.18 0.00 75 1009.3
20260507043920 21 228 12.9 17.7 0.00 0.18 0.00 75 1009.4
20260507043142 21 172 8.0 19.3 0.00 0.18 0.00 75 1009.5
20260507042645 21 207 11.3 19.3 0.00 0.18 0.00 75 1009.6
20260507042144 21 200 9.7 19.3 0.00 0.18 0.00 75 1009.7
20260507041923 21 195 14.5 20.9 0.00 0.18 0.00 76 1009.4
20260507041142 21 199 11.3 20.9 0.00 0.18 0.00 76 1009.3
20260507040639 21 193 8.0 14.5 0.00 0.18 0.00 76 1009.3
20260507040131 21 228 6.4 14.5 0.00 0.18 0.00 76 1009.3
20260507035632 20 231 6.4 16.1 0.00 0.18 0.18 76 1009.4
20260507035131 20 195 6.4 16.1 0.00 0.18 0.18 76 1009.5
20260507034631 20 200 8.0 14.5 0.00 0.18 0.18 77 1009.6
20260507034409 20 228 6.4 19.3 0.00 0.18 0.18 77 1009.5
20260507033629 20 206 8.0 19.3 0.00 0.18 0.18 77 1009.5
20260507033131 20 212 8.0 19.3 0.00 0.18 0.18 77 1009.3
20260507032630 20 195 11.3 19.3 0.00 0.18 0.18 77 1009.1
20260507032406 20 190 9.7 19.3 0.00 0.18 0.18 77 1008.9
20260507031629 20 210 8.0 14.5 0.00 0.18 0.18 77 1008.9
20260507031131 20 213 9.7 14.5 0.00 0.18 0.18 77 1009.0
20260507030903 20 223 8.0 16.1 0.00 0.18 0.18 77 1009.0
20260507030130 20 210 6.4 16.1 0.00 0.18 0.18 77 1008.9
20260507025631 20 217 8.0 17.7 0.00 0.18 0.18 77 1008.9
20260507025129 20 185 9.7 17.7 0.00 0.18 0.18 77 1008.9
20260507024632 20 178 9.7 17.7 0.00 0.18 0.18 77 1008.8
20260507024124 20 195 8.0 16.1 0.00 0.18 0.18 77 1009.0
20260507023847 20 207 8.0 16.1 0.00 0.18 0.18 77 1009.0
20260507023113 20 214 8.0 11.3 0.00 0.18 0.18 77 1009.0
20260507022603 20 185 6.4 14.5 0.00 0.18 0.18 77 1009.3
20260507022103 20 199 8.0 16.1 0.00 0.18 0.18 77 1009.2
20260507021601 20 192 9.7 16.1 0.00 0.18 0.18 77 1009.2
20260507021103 20 169 8.0 17.7 0.00 0.18 0.18 77 1009.4
20260507020826 20 145 9.7 17.7 0.00 0.18 0.18 77 1009.5
20260507020323 20 193 6.4 11.3 0.00 0.18 0.18 76 1009.5
20260507015551 20 203 8.0 11.3 0.00 0.18 0.18 76 1009.5
20260507015046 20 210 9.7 11.3 0.00 0.18 0.18 76 1009.5
20260507014543 20 200 6.4 11.3 0.00 0.18 0.18 76 1009.6
20260507014041 20 204 6.4 9.7 0.00 0.18 0.18 76 1009.4
20260507013805 20 206 4.8 8.0 0.00 0.18 0.18 76 1009.5
20260507013030 20 206 4.8 8.0 0.00 0.18 0.18 76 1009.4
20260507012758 20 182 6.4 8.0 0.00 0.18 0.18 75 1009.3
20260507012030 20 180 6.4 9.7 0.00 0.18 0.18 75 1009.3
20260507011805 20 171 6.4 9.7 0.00 0.18 0.18 75 1009.3
20260507011029 21 190 6.4 9.7 0.00 0.18 0.18 75 1009.2
20260507010529 21 192 6.4 9.7 0.00 0.18 0.18 74 1009.3
20260507010030 21 199 4.8 6.4 0.00 0.18 0.18 74 1009.3
20260507005530 21 199 3.2 8.0 0.00 0.18 0.18 74 1009.1
20260507005030 21 210 4.8 11.3 0.00 0.18 0.18 73 1009.2
20260507004530 21 212 8.0 14.5 0.00 0.18 0.18 73 1009.4
20260507004030 21 178 6.4 17.7 0.00 0.18 0.18 73 1009.4
20260507003529 21 216 9.7 17.7 0.00 0.18 0.18 73 1009.5
20260507003303 -17 192 4.8 4.8 0.00 0.18 0.18 1009.4
20260507002530 -17 0.0 0.0 0.00 0.18 0.18 1009.4
20260507002028 21 210 8.0 11.3 0.00 0.18 0.18 72 1009.4
20260507001004 21 193 6.4 17.7 0.00 0.18 0.18 71 1009.6
20260507000749 21 190 9.7 17.7 0.00 0.18 0.18 71 1009.5
20260507000002 21 212 9.7 17.7 0.00 0.18 0.18 71 1009.4
20260506235737 21 207 9.7 27.4 0.00 0.18 0.18 71 1009.3
20260506235236 21 209 8.0 27.4 0.00 0.18 0.18 70 1009.2
20260506234502 22 219 6.4 20.9 0.00 0.18 0.18 70 1009.1
20260506234002 22 212 6.4 20.9 0.00 0.18 0.18 70 1009.0
20260506233502 22 257 8.0 19.3 0.00 0.18 0.18 69 1009.0
20260506233002 22 224 9.7 16.1 0.00 0.18 0.18 69 1008.9
20260506232501 22 221 11.3 16.1 0.00 0.18 0.18 69 1009.1
20260506232003 22 188 11.3 17.7 0.00 0.18 0.18 68 1009.0
20260506231502 22 176 12.9 19.3 0.00 0.18 0.18 68 1009.1
20260506231000 22 196 9.7 19.3 0.00 0.18 0.18 68 1008.9
20260506230502 22 192 11.3 19.3 0.00 0.18 0.18 68 1009.1
20260506230002 22 203 9.7 17.7 0.00 0.18 0.18 68 1009.0
20260506225742 22 221 6.4 20.9 0.00 0.18 0.18 69 1009.1
20260506225002 22 219 12.9 20.9 0.00 0.18 0.18 68 1009.0
20260506224503 22 203 8.0 20.9 0.00 0.18 0.18 68 1009.0
20260506224003 22 221 6.4 27.4 0.00 0.18 0.18 68 1009.2
20260506223502 22 220 11.3 27.4 0.00 0.18 0.18 68 1009.0
20260506223003 22 203 9.7 19.3 0.00 0.18 0.18 68 1009.0
20260506222502 22 223 8.0 17.7 0.00 0.18 0.18 67 1009.0
20260506222001 22 233 14.5 17.7 0.00 0.18 0.18 67 1009.1
20260506221502 22 183 9.7 22.5 0.00 0.18 0.18 67 1009.0
20260506221002 22 200 14.5 22.5 0.00 0.18 0.18 67 1009.0
20260506220440 22 216 14.5 19.3 0.00 0.18 0.18 67 1008.9
20260506215930 22 186 8.0 20.9 0.00 0.18 0.18 67 1009.0
20260506215705 22 216 11.3 24.1 0.00 0.18 0.18 66 1009.0
20260506214937 22 223 12.9 25.7 0.00 0.18 0.18 66 1009.0
20260506214431 22 204 14.5 25.7 0.00 0.18 0.18 66 1009.0
20260506214203 22 188 16.1 25.7 0.00 0.18 0.18 67 1009.1
20260506213431 22 217 14.5 32.2 0.00 0.18 0.18 67 1009.2
20260506212921 22 254 19.3 32.2 0.00 0.18 0.18 67 1009.3
20260506212653 22 224 12.9 24.1 0.00 0.18 0.18 67 1009.4
20260506211914 22 230 9.7 24.1 0.00 0.18 0.18 68 1009.3
20260506211648 22 213 12.9 24.1 0.00 0.18 0.18 68 1009.2
20260506210914 22 276 14.5 24.1 0.00 0.18 0.18 69 1009.1
20260506210644 22 227 8.0 19.3 0.00 0.18 0.18 70 1009.1
20260506205909 22 251 9.7 25.7 0.00 0.18 0.18 70 1009.1
20260506204902 -17 0.0 0.0 0.00 0.18 0.18 1009.3
20260506204401 -17 0.0 0.0 0.00 0.18 0.18 1009.2
20260506203903 -17 0.0 0.0 0.00 0.18 0.18 1009.2
20260506203354 21 216 8.0 8.0 0.00 0.18 0.18 72 1009.2
20260506202840 21 216 8.0 17.7 0.00 0.18 0.18 72 1009.0
20260506202339 21 199 6.4 17.7 0.00 0.18 0.18 73 1009.1
20260506201903 21 226 4.8 17.7 0.00 0.18 0.18 73 1009.3
20260506200831 21 221 11.3 17.7 0.00 0.18 0.18 73 1009.0
20260506200603 21 203 9.7 16.1 0.00 0.18 0.18 73 1009.2
20260506195826 20 173 4.8 17.7 0.00 0.18 0.18 74 1008.7
20260506195324 20 173 8.0 17.7 0.00 0.18 0.18 74 1008.7
20260506194826 20 204 9.7 14.5 0.00 0.18 0.18 74 1008.5
20260506194324 20 179 8.0 19.3 0.00 0.18 0.18 75 1008.5
20260506193826 20 176 9.7 19.3 0.00 0.18 0.18 75 1008.6
20260506193324 20 173 8.0 19.3 0.03 0.18 0.18 76 1008.6
20260506192828 20 199 8.0 19.3 0.03 0.18 0.18 76 1008.9
20260506192324 20 172 11.3 17.7 0.03 0.18 0.18 77 1009.0
20260506191826 19 176 3.2 16.1 0.03 0.18 0.18 78 1009.3
20260506191557 19 202 9.7 20.9 0.03 0.18 0.18 78 1009.3
20260506191101 19 195 9.7 20.9 0.03 0.18 0.18 78 1009.5
20260506190324 19 217 12.9 19.3 0.03 0.18 0.18 79 1009.6
20260506185826 18 224 9.7 20.9 0.03 0.15 0.18 79 1009.5
20260506185325 18 200 8.0 24.1 0.03 0.15 0.18 79 1009.6
20260506184826 18 190 16.1 24.1 0.03 0.15 0.18 80 1009.5
20260506184325 18 190 11.3 27.4 0.03 0.15 0.18 79 1009.8
20260506184100 18 197 14.5 27.4 0.03 0.15 0.18 79 1009.6
20260506183325 18 175 12.9 25.7 0.00 0.15 0.15 79 1009.9
20260506182826 18 219 12.9 24.1 0.00 0.15 0.15 78 1010.1
20260506182602 18 199 9.7 24.1 0.00 0.15 0.15 78 1010.2
20260506181825 18 203 14.5 24.1 0.00 0.15 0.15 78 1010.5
20260506181325 18 204 8.0 24.1 0.00 0.15 0.15 78 1010.6
20260506180826 18 214 14.5 24.1 0.00 0.15 0.15 78 1010.6
20260506180325 19 219 9.7 24.1 0.00 0.15 0.15 77 1010.6
20260506175826 19 210 14.5 24.1 0.00 0.15 0.15 77 1010.8
20260506175602 19 217 11.3 27.4 0.00 0.15 0.15 77 1010.8
20260506175107 19 210 11.3 27.4 0.00 0.15 0.15 77 1010.7
20260506174325 19 186 16.1 29.0 0.00 0.15 0.15 76 1010.7
20260506173827 19 186 14.5 29.0 0.00 0.15 0.15 76 1010.7
20260506173325 19 223 14.5 22.5 0.00 0.15 0.15 76 1010.7
20260506172827 19 210 14.5 22.5 0.00 0.15 0.15 76 1010.7
20260506172325 18 166 16.1 24.1 0.00 0.15 0.15 76 1010.6
20260506171826 18 214 14.5 24.1 0.00 0.15 0.15 76 1010.6
20260506171325 18 224 11.3 25.7 0.00 0.15 0.15 76 1010.6
20260506170825 18 226 14.5 25.7 0.00 0.15 0.15 76 1010.9
20260506170324 18 199 17.7 24.1 0.00 0.15 0.15 77 1010.9
20260506170111 18 217 9.7 20.9 0.00 0.15 0.15 77 1011.2
20260506165324 18 221 12.9 20.9 0.00 0.15 0.15 77 1011.1
20260506164825 18 188 9.7 17.7 0.00 0.15 0.15 77 1010.8
20260506164322 18 200 8.0 22.5 0.00 0.15 0.15 77 1011.0
20260506163823 18 175 11.3 22.5 0.00 0.15 0.15 77 1011.1
20260506163320 18 217 9.7 25.7 0.00 0.15 0.15 77 1011.1
20260506162820 18 173 12.9 25.7 0.00 0.15 0.15 78 1010.9